Location: C�mpuri de-Sus
(45.9500°N, 22.5500°E)
Time: 01:05:15
(UTC+00:00)

Cosmos 839 Rocket - Pass Details

Date: 04 June 2022
Orbit: 968 x 2085 km, 65.9° (Epoch: 06 July)

Event Time Altitude Azimuth Distance (km) Brightness Sun altitude
Rises 19:37:48 0° 327° (NNW) 3,670 9.1 -11.4°
Reaches altitude 10° 19:40:38 10° 339° (NNW) 2,748 7.7 -11.7°
Maximum altitude 19:46:05 29° 39° (NE) 1,820 5.6 -12.3°
Drops below altitude 10° 19:52:10 10° 98° (E) 3,099 6.2 -12.9°
Enters shadow 19:53:26 - 103° (ESE) 3,509 6.5 -13.1°
